LiveATC.Net - Listen to live air traffic control over the Internet!


ICAO: KOAJ  IATA: OAJ   Airport: Albert J Ellis Airport
City: Jacksonville   State/Province: North Carolina
Country: United States   Continent: North America
KOAJ METAR Weather: KOAJ 241756Z 04008KT 10SM -RA OVC007 23/22 A3009 RMK AO2 RAB21 CIG 006V011 SLP190 P0001 60001 T02330222 10244 20222 58003
KOAJ Flight Activity (FlightAware)
KOAJ Airport Info   (iFlightPlanner)
KOAJ VFR Sectional Chart   (iFlightPlanner) 
KOAJ IFR Low Chart   (iFlightPlanner) 

KOAJ Gnd/Twr
Feed Status: UP   Listeners: 0
Listen in your browser - HTML5 player (in browser, HTML5)
Click here to listen with your own player (launches your MP3 player)
KOAJ Gnd/Twr Audio Archives
FacilityFrequency
Ellis Ground125.400
Ellis Tower132.650

NOTICE

Unauthorized use prohibited. See LiveATC.net Terms of Service


Airport/ARTCC Code
Frequency Search
(e.g., 124.400, 128.75)
Site-wide search
 


Browse LiveATC Feeds
Top 50 LiveATC Feeds
LiveATC Feed Map
Bad Weather Areas

LiveATC FAQ
Offer LiveATC feed
Contact LiveATC.net
Press Inquiries

LiveATC on iPhone
LiveATC on Android

Windows Phone
Windows 8/10

LiveATC Mobile
(Mobile browser)

ATC Audio Archives
Interesting Recordings

LiveATC Forums


Home Page
About LiveATC.net
Make a Donation
Terms of Use
Privacy Policy

Canadian Air Freqs

AIRMETs/SIGMETs

FAA Airport Status
Nat'l Airspace Status
Arrival Demand Charts


Server Software By:
Icecast.org
Liquidsoap